OneWeb SL0509

operational
NORAD ID: 54127 Int'l Des: 2022-138 Owner: ONEWEBN Country: UK Constellation: oneweb
LEOCIRCULARPOLARONEWEB_TYPE

About OneWeb SL0509

Description loading...

Live Position

Loading 3D Globe...

Upcoming Passes

Altitude History

Altitude vs Time

uPlot chart will show altitude changes over time

Two-Line Element Set

1 54127U 22138Q 26094.70126885 .00000001 00000-0 -30524-4 0 9993
2 54127 87.9194 319.6109 0001829 84.9722 275.1620 13.19727244167119
Epoch: Apr 4, 2026 • Age: 12 hours

Current Status

Altitude 1188.8 km
Velocity 7.26 km/s
Sub-Earth Point 29.02°N, 122.79°W
Launch Date Oct 22, 2022
Age 3.4 years
Type internet

Technical Details

Classification Payload
Mass 148.00 kg
Dry Mass 140.00 kg
Total Mass 148.00 kg
Length 1.30 m
Diameter 1.00 m
Span 5.00 m
Shape Trapezoid+2 pan
Manufacturer ONEWUS
Bus Type ARROW
Phase Status In Orbit
Owner/State ONEWEBN/UK

Large Constellations

Loading constellations...